User: anonymous   Login
Location: Auckland
(36.8670°S, 174.7670°E)
Time: 13:06:13
(UTC+13:00)
Language:

NOSS 2-1 (E) - Orbit

View from above orbital plane
View from above orbital plane
View from above satellite
View from above satellite

Ground track
Ground track

The orbit data is extracted from the following two-line orbital elements,

1 20642U 90050E   19076.81402868 0.00000250  00000-0  49231-4 0    01
2 20642  63.3284 338.7884 0835003  37.2266 322.7734 13.41863491    06
Epoch (UTC): 17 March 2019 19:32:12
Eccentricity: 0.0835003
inclination: 63.3284°
perigee height: 478 km
apogee height: 1727 km
right ascension of ascending node: 338.7884°
argument of perigee: 37.2266°
revolutions per day: 13.41863491
mean anomaly at epoch: 322.7734°
orbit number at epoch: 0

The dashed part of the orbit path shows where the satellite is in the earth's shadow,  

DLR